POLYTECH-UNIVERSE 3 (R*)

Last updated on Tue Dec 03 2024 00:03:03 GMT+0000 (Coordinated Universal Time)

1 57191U 23091AB 24337.51476398 .00010080 00000+0 60348-3 0 9992 2 57191 97.5880 28.0800 0016970 272.4936 87.4350 15.11093160 78881
UTC large
Height (km)
Speed (km/s)
/
Latitude / Longitude
Inclination (degrees)
Orbital Period (minutes)
Azimuth
Elevation
Range (km)
Doppler Factor

Next 0 passes for location: London (51.5072 / 0.1276)

Sorry there are no passes over London.